Weather History for Challis, ID

Change the Weather History Date:

Friday, February 15, 2013

  Actual Average Record
Temperature  
Mean Temperature 29 °F 24 °F  
Max Temperature 42 °F 35 °F 56 °F (1898)
Min Temperature 16 °F 14 °F -13 °F (1915)
Degree Days  
Heating Degree Days 36 40  
Month to date heating degree days 573 636  
Since 1 July heating degree days 5201 5558  
Cooling Degree Days 0 0  
Month to date cooling degree days 0 0  
Year to date cooling degree days 0 0  
Moisture  
Dew Point 16 °F    
Average Humidity 60    
Maximum Humidity 81    
Minimum Humidity 38    
Precipitation  
Precipitation 0.00 in 0.01 in 0.92 in (1898)
Month to date precipitation T 0.32  
Year to date precipitation 0.21 0.83  
Sea Level Pressure  
Sea Level Pressure 30.51 in    
Wind  
Wind Speed 1 mph (SSW)    
Max Wind Speed 10 mph    
Max Gust Speed 15 mph    
Visibility 10 miles    
Events      
T = Trace of Precipitation, MM = Missing Value Source: NWS Daily Summary

Daily Weather History Graph

Daily Weather History Graph

Search for Another Location

Airport:

Trip Planner

Search our weather history database for the weather conditions in past years. The results will help you decide how hot, cold, wet, or windy it might be!

Date:

Astronomy

Feb. 15, 2013 Rise Set
Actual Time 7:36 AM MST 6:06 PM MST
Civil Twilight 7:06 AM MST 6:36 PM MST
Nautical Twilight 6:32 AM MST 7:10 PM MST
Astronomical Twilight 5:58 AM MST 7:43 PM MST
Moon 9:59 AM MST (2/15) No Moon Set
Length of Visible Light 11h 29m
Length of Day
10h 29m
Waxing Crescent, 31% of the Moon is Illuminated
Feb 15
Waxing Crescent
Feb 17
First Quarter
Feb 25
Full
Mar 4
Last Quarter
Mar 11
New

Hourly Weather History & Observations

Time (MST) Temp. Windchill Dew Point Humidity Pressure Visibility Wind Dir Wind Speed Gust Speed Precip Events Conditions
12:55 AM 21.9 °F - 15.1 °F 75% 30.49 in 10.0 mi Calm Calm - N/A   Clear
1:55 AM 21.9 °F 17.2 °F 15.1 °F 75% 30.49 in 10.0 mi South 3.5 mph - N/A   Clear
2:55 AM 19.0 °F 13.9 °F 12.9 °F 77% 30.51 in 10.0 mi ENE 3.5 mph - N/A   Clear
3:55 AM 19.0 °F 13.9 °F 12.9 °F 77% 30.51 in 10.0 mi West 3.5 mph - N/A   Clear
4:55 AM 18.0 °F - 12.0 °F 78% 30.52 in 10.0 mi Calm Calm - N/A   Partly Cloudy
5:55 AM 19.0 °F 13.9 °F 12.9 °F 77% 30.56 in 10.0 mi South 3.5 mph - N/A   Partly Cloudy
6:55 AM 18.0 °F - 12.0 °F 78% 30.58 in 10.0 mi Calm Calm - N/A   Partly Cloudy
7:55 AM 17.1 °F 11.7 °F 10.9 °F 77% 30.61 in 10.0 mi NW 3.5 mph - N/A   Clear
8:55 AM 23.0 °F - 15.1 °F 72% 30.60 in 10.0 mi Calm Calm - N/A   Clear
9:55 AM 26.1 °F - 15.1 °F 63% 30.59 in 10.0 mi Calm Calm - N/A   Clear
10:55 AM 30.0 °F 26.5 °F 16.0 °F 56% 30.58 in 10.0 mi SE 3.5 mph - N/A   Clear
11:55 AM 33.1 °F 30.0 °F 16.0 °F 50% 30.56 in 10.0 mi NNE 3.5 mph - N/A   Clear
12:55 PM 36.0 °F 33.3 °F 18.0 °F 48% 30.53 in 10.0 mi NNE 3.5 mph - N/A   Clear
1:55 PM 39.0 °F - 18.0 °F 43% 30.49 in 10.0 mi Calm Calm - N/A   Clear
2:55 PM 39.9 °F - 18.0 °F 41% 30.47 in 10.0 mi Calm Calm - N/A   Clear
3:55 PM 41.0 °F - 18.0 °F 40% 30.46 in 10.0 mi Calm Calm - N/A   Clear
4:55 PM 39.9 °F - 18.0 °F 41% 30.45 in 10.0 mi Calm Calm - N/A   Clear
5:55 PM 30.9 °F 27.5 °F 21.9 °F 69% 30.47 in 10.0 mi SW 3.5 mph - N/A   Clear
6:55 PM 30.9 °F - 19.9 °F 64% 30.47 in 10.0 mi Calm Calm - N/A   Clear
7:55 PM 30.0 °F - 19.9 °F 66% 30.48 in 10.0 mi Calm Calm - N/A   Clear
8:55 PM 26.1 °F - 19.0 °F 75% 30.47 in 10.0 mi Calm Calm - N/A   Clear
9:55 PM 24.1 °F - 18.0 °F 77% 30.48 in 10.0 mi Calm Calm - N/A   Clear
10:55 PM 23.0 °F - 18.0 °F 81% 30.46 in 10.0 mi Calm Calm - N/A   Clear
11:55 PM 24.1 °F - 18.0 °F 77% 30.44 in 10.0 mi Calm Calm - N/A   Clear